When you browse on this site, cookies collect data to enhance your experience and personalize the content and advertising you see.
Visit our Privacy Policy to learn more. By continuing to use the site, you agree to this use of cookies and data.
  • In Deutschland
  • Länderverzeichnis
  • Für 7 Tage
  • Wassertemperatur
  • Satellitenkarten
  • Wetterkarte
  • Widgets
  • user-avatar
    Anmelden

    Stündliche Wetter Bchopal

    Heute, 16 Dezember, Sonntag

    Zeit Temperatur Niederschläge Wind Luftdruck Luftfeuchtigkeit
    00:00 +13°C° 0 mm 2 m/S 721 mmHg 43%
    01:00 +12°C° 0 mm 2 m/S 720 mmHg 44%
    02:00 +12°C° 0 mm 2 m/S 720 mmHg 44%
    03:00 +12°C° 0 mm 2 m/S 720 mmHg 45%
    04:00 +10°C° 0 mm 2 m/S 720 mmHg 47%
    05:00 +9°C° 0 mm 3 m/S 720 mmHg 48%
    06:00 +10°C° 0 mm 3 m/S 721 mmHg 47%
    07:00 +11°C° 0 mm 3 m/S 721 mmHg 47%
    08:00 +12°C° 0 mm 3 m/S 722 mmHg 47%
    09:00 +15°C° 0 mm 4 m/S 722 mmHg 42%
    10:00 +18°C° 0 mm 4 m/S 722 mmHg 37%
    11:00 +20°C° 0 mm 4 m/S 722 mmHg 35%
    12:00 +21°C° 0 mm 4 m/S 722 mmHg 32%
    13:00 +22°C° 0 mm 3 m/S 721 mmHg 30%
    14:00 +24°C° 0 mm 3 m/S 720 mmHg 27%
    15:00 +22°C° 0 mm 3 m/S 720 mmHg 30%
    16:00 +20°C° 0 mm 3 m/S 719 mmHg 34%
    17:00 +18°C° 0 mm 3 m/S 719 mmHg 38%
    18:00 +17°C° 0 mm 3 m/S 719 mmHg 38%
    19:00 +16°C° 0 mm 3 m/S 719 mmHg 38%
    20:00 +14°C° 0 mm 3 m/S 720 mmHg 39%
    21:00 +13°C° 0 mm 3 m/S 719 mmHg 39%
    22:00 +13°C° 0 mm 3 m/S 719 mmHg 39%
    23:00 +12°C° 0 mm 3 m/S 719 mmHg 38%

    Morgen, 17 Dezember, Montag

    Zeit Temperatur Niederschläge Wind Luftdruck Luftfeuchtigkeit
    00:00 +12°C° 0 mm 3 m/S 719 mmHg 39%
    01:00 +11°C° 0 mm 3 m/S 719 mmHg 39%
    02:00 +11°C° 0 mm 3 m/S 719 mmHg 40%
    03:00 +10°C° 0 mm 3 m/S 719 mmHg 41%
    04:00 +10°C° 0 mm 3 m/S 719 mmHg 43%
    05:00 +10°C° 0 mm 3 m/S 719 mmHg 45%
    06:00 +11°C° 0 mm 3 m/S 719 mmHg 45%
    07:00 +12°C° 0 mm 3 m/S 720 mmHg 45%
    08:00 +13°C° 0 mm 3 m/S 720 mmHg 45%
    09:00 +15°C° 0 mm 4 m/S 720 mmHg 41%
    10:00 +18°C° 0 mm 4 m/S 721 mmHg 36%
    11:00 +21°C° 0 mm 4 m/S 721 mmHg 31%
    12:00 +22°C° 0 mm 4 m/S 720 mmHg 30%
    13:00 +23°C° 0 mm 4 m/S 720 mmHg 28%
    14:00 +23°C° 0 mm 4 m/S 719 mmHg 26%
    15:00 +22°C° 0 mm 3 m/S 719 mmHg 30%
    16:00 +20°C° 0 mm 3 m/S 718 mmHg 34%
    17:00 +19°C° 0 mm 2 m/S 718 mmHg 38%
    18:00 +18°C° 0 mm 2 m/S 718 mmHg 40%
    19:00 +17°C° 0 mm 2 m/S 719 mmHg 42%
    20:00 +15°C° 0 mm 2 m/S 719 mmHg 45%
    21:00 +15°C° 0 mm 2 m/S 719 mmHg 49%
    22:00 +14°C° 0 mm 2 m/S 719 mmHg 53%
    23:00 +13°C° 0 mm 2 m/S 719 mmHg 57%

    übermorgen, 18 Dezember, Dienstag

    Zeit Temperatur Niederschläge Wind Luftdruck Luftfeuchtigkeit
    00:00 +13°C° 0 mm 2 m/S 719 mmHg 58%
    01:00 +13°C° 0 mm 2 m/S 719 mmHg 60%
    02:00 +12°C° 0 mm 2 m/S 718 mmHg 61%
    03:00 +12°C° 0 mm 2 m/S 718 mmHg 60%
    04:00 +12°C° 0 mm 2 m/S 718 mmHg 59%
    05:00 +12°C° 0 mm 2 m/S 718 mmHg 59%
    06:00 +13°C° 0 mm 2 m/S 719 mmHg 55%
    07:00 +14°C° 0 mm 2 m/S 719 mmHg 52%
    08:00 +14°C° 0 mm 2 m/S 720 mmHg 49%
    09:00 +17°C° 0 mm 2 m/S 720 mmHg 43%
    10:00 +19°C° 0 mm 2 m/S 720 mmHg 38%
    11:00 +21°C° 0 mm 2 m/S 720 mmHg 32%
    12:00 +23°C° 0 mm 2 m/S 720 mmHg 29%
    13:00 +24°C° 0 mm 2 m/S 719 mmHg 26%
    14:00 +25°C° 0 mm 2 m/S 718 mmHg 23%
    15:00 +23°C° 0 mm 2 m/S 718 mmHg 26%
    16:00 +21°C° 0 mm 2 m/S 718 mmHg 28%
    17:00 +19°C° 0 mm 2 m/S 717 mmHg 31%
    18:00 +18°C° 0 mm 2 m/S 718 mmHg 31%
    19:00 +18°C° 0 mm 1 m/S 718 mmHg 32%
    20:00 +16°C° 0 mm 1 m/S 718 mmHg 32%
    21:00 +15°C° 0 mm 1 m/S 718 mmHg 33%
    22:00 +15°C° 0 mm 2 m/S 718 mmHg 33%
    23:00 +14°C° 0 mm 2 m/S 718 mmHg 34%

    19 Dezember, Mittwoch

    Zeit Temperatur Niederschläge Wind Luftdruck Luftfeuchtigkeit
    00:00 +14°C° 0 mm 2 m/S 718 mmHg 35%
    01:00 +13°C° 0 mm 2 m/S 718 mmHg 36%
    02:00 +13°C° 0 mm 2 m/S 717 mmHg 36%
    03:00 +12°C° 0 mm 2 m/S 717 mmHg 37%
    04:00 +12°C° 0 mm 2 m/S 717 mmHg 38%
    05:00 +11°C° 0 mm 1 m/S 717 mmHg 39%
    06:00 +13°C° 0 mm 1 m/S 718 mmHg 38%
    07:00 +14°C° 0 mm 1 m/S 719 mmHg 37%
    08:00 +15°C° 0 mm 1 m/S 720 mmHg 36%
    09:00 +18°C° 0 mm 1 m/S 720 mmHg 32%
    10:00 +21°C° 0 mm 1 m/S 720 mmHg 29%
    11:00 +23°C° 0 mm 1 m/S 720 mmHg 25%
    12:00 +24°C° 0 mm 1 m/S 720 mmHg 23%
    13:00 +25°C° 0 mm 1 m/S 719 mmHg 21%
    14:00 +26°C° 0 mm 1 m/S 718 mmHg 19%
    15:00 +24°C° 0 mm 1 m/S 718 mmHg 22%
    16:00 +23°C° 0 mm 1 m/S 718 mmHg 25%
    17:00 +21°C° 0 mm 1 m/S 717 mmHg 28%
    18:00 +20°C° 0 mm 1 m/S 718 mmHg 28%
    19:00 +19°C° 0 mm 1 m/S 718 mmHg 29%
    20:00 +18°C° 0 mm 1 m/S 719 mmHg 29%
    21:00 +16°C° 0 mm 1 m/S 719 mmHg 30%
    22:00 +16°C° 0 mm 1 m/S 719 mmHg 30%
    23:00 +15°C° 0 mm 1 m/S 719 mmHg 30%

    20 Dezember, Donnerstag

    Zeit Temperatur Niederschläge Wind Luftdruck Luftfeuchtigkeit
    00:00 +15°C° 0 mm 1 m/S 718 mmHg 31%
    01:00 +14°C° 0 mm 1 m/S 718 mmHg 31%
    02:00 +14°C° 0 mm 1 m/S 718 mmHg 31%
    03:00 +13°C° 0 mm 1 m/S 718 mmHg 32%
    04:00 +13°C° 0 mm 1 m/S 718 mmHg 32%
    05:00 +13°C° 0 mm 1 m/S 718 mmHg 33%
    06:00 +14°C° 0 mm 1 m/S 718 mmHg 33%
    07:00 +15°C° 0 mm 1 m/S 719 mmHg 33%
    08:00 +16°C° 0 mm 1 m/S 720 mmHg 33%
    09:00 +19°C° 0 mm 1 m/S 720 mmHg 29%
    10:00 +22°C° 0 mm 1 m/S 720 mmHg 25%
    11:00 +24°C° 0 mm 2 m/S 720 mmHg 22%
    12:00 +25°C° 0 mm 1 m/S 719 mmHg 20%
    13:00 +26°C° 0 mm 1 m/S 719 mmHg 19%
    14:00 +27°C° 0 mm 1 m/S 718 mmHg 17%
    15:00 +25°C° 0 mm 1 m/S 717 mmHg 20%
    16:00 +24°C° 0 mm 1 m/S 717 mmHg 22%
    17:00 +22°C° 0 mm 1 m/S 717 mmHg 25%
    18:00 +21°C° 0 mm 1 m/S 717 mmHg 25%
    19:00 +20°C° 0 mm 1 m/S 718 mmHg 25%
    20:00 +18°C° 0 mm 1 m/S 718 mmHg 26%
    21:00 +18°C° 0 mm 1 m/S 718 mmHg 26%
    22:00 +16°C° 0 mm 1 m/S 718 mmHg 26%
    23:00 +16°C° 0 mm 1 m/S 718 mmHg 27%

    21 Dezember, Freitag

    Zeit Temperatur Niederschläge Wind Luftdruck Luftfeuchtigkeit
    00:00 +15°C° 0 mm 1 m/S 718 mmHg 27%
    01:00 +14°C° 0 mm 1 m/S 717 mmHg 28%
    02:00 +14°C° 0 mm 1 m/S 717 mmHg 28%
    03:00 +13°C° 0 mm 1 m/S 717 mmHg 29%
    04:00 +13°C° 0 mm 1 m/S 717 mmHg 29%
    05:00 +13°C° 0 mm 1 m/S 717 mmHg 29%
    06:00 +14°C° 0 mm 1 m/S 718 mmHg 30%
    07:00 +15°C° 0 mm 1 m/S 719 mmHg 30%
    08:00 +16°C° 0 mm 1 m/S 719 mmHg 30%
    09:00 +19°C° 0 mm 1 m/S 719 mmHg 27%
    10:00 +21°C° 0 mm 2 m/S 720 mmHg 23%
    11:00 +24°C° 0 mm 2 m/S 720 mmHg 20%
    12:00 +25°C° 0 mm 1 m/S 719 mmHg 19%
    13:00 +26°C° 0 mm 1 m/S 718 mmHg 18%
    14:00 +27°C° 0 mm 1 m/S 717 mmHg 16%
    15:00 +25°C° 0 mm 1 m/S 717 mmHg 19%
    16:00 +24°C° 0 mm 1 m/S 717 mmHg 22%
    17:00 +22°C° 0 mm 1 m/S 717 mmHg 25%
    18:00 +21°C° 0 mm 1 m/S 717 mmHg 25%
    19:00 +20°C° 0 mm 1 m/S 718 mmHg 26%
    20:00 +18°C° 0 mm 1 m/S 718 mmHg 26%
    21:00 +18°C° 0 mm 1 m/S 718 mmHg 27%
    22:00 +16°C° 0 mm 1 m/S 718 mmHg 28%
    23:00 +16°C° 0 mm 1 m/S 718 mmHg 28%
    Mehr zeigen